This is the latest recevied weather packets stored in our database for station/object K7KAZ. If no packets are shown the sender has not sent any weather packets the latest 10 day(s).
| Time | Temp. | Humidity | Pressure | Rain* | Wind** | Luminosity | Snow |
|---|---|---|---|---|---|---|---|
| 1778037836 | 21.11° C | 31% | 1014.2 hPa | 0 mm | - | 0 W/m² | - |
| 1778037533 | 21.11° C | 31% | 1014.2 hPa | 0 mm | - | 0 W/m² | - |
| 1778037230 | 21.11° C | 31% | 1013.8 hPa | 0 mm | - | 0 W/m² | - |
| 1778036928 | 21.67° C | 30% | 1014 hPa | 0 mm | - | 0 W/m² | - |
| 1778036626 | 21.67° C | 30% | 1013.8 hPa | 0 mm | - | 0 W/m² | - |
| 1778036322 | 21.67° C | 30% | 1013.6 hPa | 0 mm | - | 0 W/m² | - |
| 1778036019 | 21.67° C | 30% | 1013.6 hPa | 0 mm | - | 0 W/m² | - |
| 1778035716 | 21.67° C | 30% | 1013.4 hPa | 0 mm | - | 0 W/m² | - |
| 1778035413 | 21.67° C | 30% | 1013.5 hPa | 0 mm | - | 0 W/m² | - |
| 1778035109 | 21.67° C | 29% | 1013.5 hPa | 0 mm | - | 0 W/m² | - |
| 1778034806 | 21.67° C | 29% | 1013.4 hPa | 0 mm | - | 0 W/m² | - |
| 1778034503 | 21.67° C | 29% | 1013.5 hPa | 0 mm | - | 0 W/m² | - |
| 1778034200 | 21.67° C | 29% | 1013.3 hPa | 0 mm | - | 0 W/m² | - |
| 1778033899 | 22.22° C | 29% | 1013.2 hPa | 0 mm | - | 0 W/m² | - |
| 1778033595 | 22.22° C | 29% | 1013 hPa | 0 mm | - | 0 W/m² | - |
| 1778033292 | 22.22° C | 29% | 1012.9 hPa | 0 mm | - | 2 W/m² | - |
| 1778032990 | 22.22° C | 29% | 1013 hPa | 0 mm | - | 5 W/m² | - |
| 1778032687 | 22.22° C | 29% | 1012.9 hPa | 0 mm | - | 9 W/m² | - |
| 1778032385 | 22.78° C | 29% | 1012.9 hPa | 0 mm | - | 15 W/m² | - |
| 1778032081 | 22.78° C | 29% | 1012.6 hPa | 0 mm | - | 21 W/m² | - |
| 1778031778 | 22.78° C | 29% | 1012.7 hPa | 0 mm | - | 26 W/m² | - |
| 1778031475 | 22.78° C | 29% | 1012.8 hPa | 0 mm | - | 23 W/m² | - |
| 1778031172 | 22.78° C | 29% | 1012.6 hPa | 0 mm | - | 40 W/m² | - |
| 1778030868 | 22.78° C | 29% | 1012.6 hPa | 0 mm | - | 55 W/m² | - |
| 1778030565 | 23.33° C | 29% | 1012.5 hPa | 0 mm | - | 67 W/m² | - |
* Rain latest hour (hover to see other rain measurements)
** Current wind speed in m/s (hover to see current wind gust speed)